DW3839 Weather Reports


Display with metric or nautical units.
time (UTC)temp
F
wind
direction
speed
MPH
gust
MPH
rain 1hr
in
rain 24hr
in
rain mn
in
humidity
%
barometer
mb
20260505195613 83 179 8.0 22.0 0.00 0.00 0.00 34 1008.5
20260505195117 83 192 5.0 20.0 0.00 0.00 0.00 37 1008.5
20260505194619 83 181 8.0 20.0 0.00 0.00 0.00 37 1008.5
20260505194119 83 223 8.0 20.0 0.00 0.00 0.00 35 1008.8
20260505193619 83 248 9.0 18.0 0.00 0.00 0.00 34 1008.8
20260505193121 82 227 9.0 18.0 0.00 0.00 0.00 37 1008.8
20260505192505 82 244 10.0 23.0 0.00 0.00 0.00 37 1008.9
20260505192103 83 238 10.0 21.0 0.00 0.00 0.00 39 1008.9
20260505191606 83 191 6.0 19.0 0.00 0.00 0.00 38 1008.9
20260505191107 82 205 6.0 23.0 0.00 0.00 0.00 37 1009.3
20260505190521 83 257 12.0 23.0 0.00 0.00 0.00 35 1009.3
20260505190117 83 156 5.0 17.0 0.00 0.00 0.00 39 1009.3
20260505185620 83 246 7.0 25.0 0.00 0.00 0.00 37 1009.3
20260505185003 82 115 9.0 25.0 0.00 0.00 0.00 37 1009.3
20260505184611 83 188 7.0 23.0 0.00 0.00 0.00 38 1009.3
20260505184105 83 250 10.0 23.0 0.00 0.00 0.00 38 1009.4
20260505183608 83 172 10.0 18.0 0.00 0.00 0.00 38 1009.4
20260505183108 82 238 5.0 17.0 0.00 0.00 0.00 39 1009.4
20260505182610 82 63 8.0 17.0 0.00 0.00 0.00 40 1009.9
20260505182113 82 190 6.0 19.0 0.00 0.00 0.00 39 1009.9
20260505181616 82 280 7.0 19.0 0.00 0.00 0.00 38 1009.9
20260505181117 83 242 6.0 18.0 0.00 0.00 0.00 41 1010.0
20260505180512 82 182 2.0 16.0 0.00 0.00 0.00 41 1010.0
20260505180110 82 196 7.0 16.0 0.00 0.00 0.00 38 1010.0
20260505175611 82 226 6.0 21.0 0.00 0.00 0.00 45 1010.2
20260505175114 82 179 8.0 21.0 0.00 0.00 0.00 40 1010.2
20260505174615 81 207 10.0 20.0 0.00 0.00 0.00 40 1010.2
20260505174124 81 196 5.0 19.0 0.00 0.00 0.00 42 1010.1
20260505173622 81 222 7.0 20.0 0.00 0.00 0.00 40 1010.1
20260505173004 82 147 7.0 15.0 0.00 0.00 0.00 39 1010.1
20260505172604 82 219 7.0 14.0 0.00 0.00 0.00 41 1010.3
20260505172114 82 283 6.0 12.0 0.00 0.00 0.00 43 1010.3
20260505171608 81 220 4.0 17.0 0.00 0.00 0.00 42 1010.3
20260505171116 80 190 4.0 17.0 0.00 0.00 0.00 44 1010.5
20260505170522 81 173 6.0 18.0 0.00 0.00 0.00 45 1010.5
20260505170139 81 186 8.0 18.0 0.00 0.00 0.00 44 1010.5
20260505165604 81 205 8.0 13.0 0.00 0.00 0.00 43 1010.7
20260505165107 81 331 2.0 13.0 0.00 0.00 0.00 42 1010.7
20260505164610 80 178 3.0 13.0 0.00 0.00 0.00 46 1010.7
20260505164116 80 202 4.0 11.0 0.00 0.00 0.00 43 1011.0
20260505163615 79 217 4.0 17.0 0.00 0.00 0.00 43 1011.0
20260505163117 80 183 6.0 14.0 0.00 0.00 0.00 44 1011.0
20260505162502 80 230 7.0 10.0 0.00 0.00 0.00 43 1011.3
20260505162103 80 193 2.0 14.0 0.00 0.00 0.00 46 1011.3
20260505161605 80 279 5.0 14.0 0.00 0.00 0.00 45 1011.3
20260505161111 80 208 4.0 10.0 0.00 0.00 0.00 45 1011.5
20260505160526 80 219 5.0 14.0 0.00 0.00 0.00 46 1011.5
20260505153004 77 146 3.0 17.0 0.00 0.00 0.00 49 1011.5
20260505152604 77 153 8.0 17.0 0.00 0.00 0.00 52 1011.6
20260505152109 76 239 5.0 14.0 0.00 0.00 0.00 49 1011.6
20260505151608 76 195 6.0 14.0 0.00 0.00 0.00 50 1011.6
20260505151110 75 192 2.0 12.0 0.00 0.00 0.00 54 1011.5
20260505150510 75 203 2.0 12.0 0.00 0.00 0.00 54 1011.5
20260505150110 74 210 5.0 12.0 0.00 0.00 0.00 54 1011.5
20260505140511 71 210 5.0 11.0 0.00 0.00 0.00 57 1011.6
20260505140111 71 220 5.0 11.0 0.00 0.00 0.00 58 1011.6
20260505130105 66 210 2.0 6.0 0.00 0.00 0.00 64 1011.8
20260505124612 65 284 4.0 12.0 0.00 0.00 0.00 64 1012.1
20260505124114 65 221 3.0 8.0 0.00 0.00 0.00 64 1012.1
20260505123502 65 223 1.0 9.0 0.00 0.00 0.00 65 1012.1
20260505123115 64 191 3.0 9.0 0.00 0.00 0.00 64 1012.1
20260505122606 64 215 4.0 10.0 0.00 0.00 0.00 65 1011.9
20260505122108 64 188 2.0 10.0 0.00 0.00 0.00 64 1011.9
20260505121610 63 211 4.0 18.0 0.00 0.00 0.00 66 1011.9
20260505121113 63 203 3.0 18.0 0.00 0.00 0.00 66 1011.9
20260505120507 63 304 4.0 11.0 0.00 0.00 0.00 67 1011.9
20260505120108 62 212 5.0 11.0 0.00 0.00 0.00 65 1011.9
20260505115606 62 251 3.0 12.0 0.00 0.00 0.00 68 1011.6
20260505115112 62 225 2.0 11.0 0.00 0.00 0.00 66 1011.6
20260505114616 62 246 4.0 13.0 0.00 0.00 0.00 65 1011.6
20260505114115 62 207 5.0 20.0 0.00 0.00 0.00 67 1011.6
20260505113614 62 262 6.0 20.0 0.00 0.00 0.00 67 1011.6
20260505113117 61 216 4.0 10.0 0.00 0.00 0.00 67 1011.6
20260505112507 61 217 4.0 11.0 0.00 0.00 0.00 68 1011.5
20260505112103 61 192 4.0 12.0 0.00 0.00 0.00 68 1011.5
20260505111611 61 178 5.0 12.0 0.00 0.00 0.00 67 1011.5
20260505111110 61 360 4.0 10.0 0.00 0.00 0.00 69 1011.2
20260505110517 60 360 3.0 11.0 0.00 0.00 0.00 69 1011.2
20260505110115 60 196 5.0 11.0 0.00 0.00 0.00 69 1011.2
20260505102117 60 214 4.0 10.0 0.00 0.00 0.00 69 1010.8
20260505101617 60 203 4.0 12.0 0.00 0.00 0.00 69 1010.8
20260505101120 60 217 3.0 16.0 0.00 0.00 0.00 68 1010.8
20260505100510 59 217 4.0 16.0 0.00 0.00 0.00 70 1010.8
20260505100111 59 203 4.0 12.0 0.00 0.00 0.00 70 1010.8
20260505095611 59 205 1.0 9.0 0.00 0.00 0.00 70 1010.6
20260505095116 59 178 2.0 12.0 0.00 0.00 0.00 70 1010.6
20260505094618 59 202 6.0 12.0 0.00 0.00 0.00 70 1010.6
20260505094119 59 204 5.0 11.0 0.00 0.00 0.00 70 1010.6
20260505093624 59 234 4.0 13.0 0.00 0.00 0.00 71 1010.6
20260505093124 59 180 4.0 13.0 0.00 0.00 0.00 70 1010.6
20260505092508 60 190 3.0 11.0 0.00 0.00 0.00 70 1010.5
20260505092108 60 194 2.0 11.0 0.00 0.00 0.00 70 1010.5
20260505091611 60 194 4.0 9.0 0.00 0.00 0.00 70 1010.5
20260505091112 60 233 2.0 9.0 0.00 0.00 0.00 70 1010.5
20260505090523 60 210 1.0 9.0 0.00 0.00 0.00 70 1010.5
20260505090119 60 195 4.0 9.0 0.00 0.00 0.00 70 1010.5
20260505085508 60 215 4.0 10.0 0.00 0.00 0.00 70 1010.6
20260505085108 60 200 4.0 10.0 0.00 0.00 0.00 71 1010.6
20260505084610 60 210 2.0 11.0 0.00 0.00 0.00 70 1010.6
20260505084112 60 186 4.0 11.0 0.00 0.00 0.00 71 1010.6
20260505083613 60 199 3.0 8.0 0.00 0.00 0.00 71 1010.6
20260505083119 60 207 3.0 7.0 0.00 0.00 0.00 71 1010.6
20260505082616 60 215 4.0 7.0 0.00 0.00 0.00 71 1010.6
20260505082114 60 233 3.0 8.0 0.00 0.00 0.00 72 1010.6
20260505081620 60 184 3.0 8.0 0.00 0.00 0.00 71 1010.6
20260505081119 60 190 3.0 8.0 0.00 0.00 0.00 71 1010.5
20260505080513 60 250 3.0 9.0 0.00 0.00 0.00 72 1010.5
20260505080110 60 220 3.0 8.0 0.00 0.00 0.00 71 1010.5
20260505075608 60 207 5.0 8.0 0.00 0.00 0.00 71 1010.5
20260505075109 61 175 5.0 9.0 0.00 0.00 0.00 71 1010.5
20260505074615 61 220 3.0 9.0 0.00 0.00 0.00 72 1010.5
20260505074115 61 213 3.0 8.0 0.00 0.00 0.00 71 1010.2
20260505073618 60 202 3.0 8.0 0.00 0.00 0.00 71 1010.2
20260505073121 60 207 3.0 9.0 0.00 0.00 0.00 72 1010.2
20260505072622 60 207 3.0 9.0 0.00 0.00 0.00 72 1010.2
20260505072010 60 194 2.0 9.0 0.00 0.00 0.00 72 1010.2
20260505071608 60 219 3.0 10.0 0.00 0.00 0.00 72 1010.2
20260505071108 60 196 2.0 10.0 0.00 0.00 0.00 73 1010.1
20260505070516 60 214 3.0 9.0 0.00 0.00 0.00 73 1010.1
20260505070116 60 189 2.0 12.0 0.00 0.00 0.00 74 1010.1
20260505065616 60 198 5.0 12.0 0.00 0.00 0.00 74 1010.1
20260505065004 59 239 3.0 9.0 0.00 0.00 0.00 75 1010.1
20260505064605 59 252 1.0 9.0 0.00 0.00 0.00 76 1010.1
20260505064109 59 206 2.0 6.0 0.00 0.00 0.00 76 1010.1
20260505063610 59 172 3.0 6.0 0.00 0.00 0.00 76 1010.1
20260505063113 59 186 2.0 5.0 0.00 0.00 0.00 75 1010.1
20260505062614 60 203 1.0 5.0 0.00 0.00 0.00 74 1010.3
20260505062118 60 171 2.0 5.0 0.00 0.00 0.00 74 1010.3
20260505061621 60 200 1.0 5.0 0.00 0.00 0.00 74 1010.3
20260505061121 60 219 2.0 5.0 0.00 0.00 0.00 73 1010.3
20260505060513 61 188 1.0 6.0 0.00 0.00 0.00 73 1010.3
20260505060111 61 196 2.0 6.0 0.00 0.00 0.00 72 1010.3
20260505055613 61 207 2.0 7.0 0.00 0.00 0.00 72 1010.2
20260505055112 61 199 2.0 7.0 0.00 0.00 0.00 72 1010.2
20260505054614 61 231 3.0 5.0 0.00 0.00 0.00 73 1010.2
20260505054118 61 168 1.0 5.0 0.00 0.00 0.00 73 1010.2
20260505053620 61 212 2.0 4.0 0.00 0.00 0.00 72 1010.2
20260505053122 61 213 0.0 5.0 0.00 0.00 0.00 72 1010.2
20260505052622 61 215 2.0 5.0 0.00 0.00 0.00 72 1010.3
20260505052005 61 191 2.0 5.0 0.00 0.00 0.00 73 1010.3
20260505051603 60 217 1.0 5.0 0.00 0.00 0.00 73 1010.3
20260505051106 60 190 2.0 5.0 0.00 0.00 0.00 73 1010.4
20260505050523 60 191 1.0 4.0 0.00 0.00 0.00 74 1010.4
20260505041616 62 204 3.0 7.0 0.00 0.00 0.00 69 1010.6
20260505041116 62 229 2.0 7.0 0.00 0.00 0.00 69 1010.6
20260505040511 63 209 1.0 6.0 0.00 0.00 0.00 68 1010.6
20260505040109 63 221 3.0 6.0 0.00 0.00 0.00 68 1010.6
20260505035609 63 192 1.0 5.0 0.00 0.00 0.00 68 1010.5
20260505035109 63 219 1.0 7.0 0.00 0.00 0.00 67 1010.5
20260505034610 63 186 1.0 9.0 0.00 0.00 0.00 67 1010.5
20260505034112 63 246 3.0 9.0 0.00 0.00 0.00 67 1010.4
20260505033611 63 188 1.0 11.0 0.00 0.00 0.00 67 1010.4
20260505033115 63 194 4.0 11.0 0.00 0.00 0.00 66 1010.4
20260505032614 63 232 2.0 6.0 0.00 0.00 0.00 67 1010.5
20260505032116 63 234 2.0 6.0 0.00 0.00 0.00 66 1010.5
20260505031619 63 196 1.0 7.0 0.00 0.00 0.00 66 1010.5
20260505031119 64 226 3.0 10.0 0.00 0.00 0.00 66 1010.5
20260505030517 64 205 4.0 10.0 0.00 0.00 0.00 65 1010.5
20260505030117 64 217 3.0 8.0 0.00 0.00 0.00 63 1010.5
20260505025622 64 218 2.0 7.0 0.00 0.00 0.00 62 1010.3
20260505025006 65 194 2.0 5.0 0.00 0.00 0.00 62 1010.3
20260505024604 65 208 1.0 5.0 0.00 0.00 0.00 61 1010.3
20260505024104 65 210 2.0 6.0 0.00 0.00 0.00 60 1010.4
20260505023604 65 246 2.0 8.0 0.00 0.00 0.00 60 1010.4
20260505023105 66 180 2.0 8.0 0.00 0.00 0.00 59 1010.4
20260505022612 65 224 4.0 8.0 0.00 0.00 0.00 60 1010.3
20260505022115 65 213 3.0 8.0 0.00 0.00 0.00 59 1010.3
20260505021612 66 194 4.0 9.0 0.00 0.00 0.00 59 1010.3
20260505021112 66 182 5.0 8.0 0.00 0.00 0.00 58 1010.3
20260505020519 66 220 4.0 13.0 0.00 0.00 0.00 59 1010.3
20260505020119 66 180 2.0 8.0 0.00 0.00 0.00 58 1010.3
20260505015511 66 227 3.0 7.0 0.00 0.00 0.00 58 1010.0
20260505015110 66 219 2.0 6.0 0.00 0.00 0.00 57 1010.0
20260505014609 66 201 2.0 5.0 0.00 0.00 0.00 57 1010.0
20260505014107 66 194 2.0 6.0 0.00 0.00 0.00 57 1010.1
20260505013608 67 236 3.0 6.0 0.00 0.00 0.00 57 1010.1
20260505013112 67 205 2.0 5.0 0.00 0.00 0.00 56 1010.1
20260505012613 67 291 1.0 5.0 0.00 0.00 0.00 55 1009.7
20260505012119 68 223 3.0 7.0 0.00 0.00 0.00 55 1009.7
20260505011622 68 186 2.0 7.0 0.00 0.00 0.00 54 1009.7
20260505011123 68 175 3.0 6.0 0.00 0.00 0.00 55 1009.6
20260505010514 68 234 1.0 9.0 0.00 0.00 0.00 54 1009.6
20260505010114 69 213 2.0 11.0 0.00 0.00 0.00 54 1009.6
20260505005615 69 179 3.0 11.0 0.00 0.00 0.00 54 1009.6
20260505005118 68 235 3.0 7.0 0.00 0.00 0.00 54 1009.6
20260505004625 68 160 4.0 7.0 0.00 0.00 0.00 54 1009.6
20260505004124 68 189 3.0 7.0 0.00 0.00 0.00 54 1009.6
20260505003623 68 177 4.0 9.0 0.00 0.00 0.00 55 1009.6
20260505003004 69 32 3.0 11.0 0.00 0.00 0.00 53 1009.6
20260505002604 69 189 2.0 10.0 0.00 0.00 0.00 54 1009.4
20260505002105 69 242 4.0 10.0 0.00 0.00 0.00 51 1009.4
20260505001612 70 228 4.0 11.0 0.00 0.00 0.00 52 1009.4
20260505001115 70 224 2.0 7.0 0.00 0.00 0.00 51 1009.5
20260505000506 70 216 3.0 10.0 0.00 0.00 0.00 49 1009.5
20260505000110 71 218 4.0 10.0 0.00 0.00 0.00 51 1009.5
20260504235608 71 213 4.0 10.0 0.00 0.00 0.00 50 1009.3
20260504235110 71 96 3.0 12.0 0.00 0.00 0.00 49 1009.3
20260504234643 71 202 6.0 12.0 0.00 0.00 0.00 49 1009.3
20260504234114 71 223 5.0 11.0 0.00 0.00 0.00 49 1009.2
20260504233119 71 209 5.0 12.0 0.00 0.00 0.00 49 1009.2
20260504232618 71 236 4.0 11.0 0.00 0.00 0.00 48 1009.1
20260504232006 71 249 3.0 11.0 0.00 0.00 0.00 48 1009.1
20260504231606 71 202 5.0 14.0 0.00 0.00 0.00 48 1009.1
20260504231104 72 213 6.0 14.0 0.00 0.00 0.00 46 1009.1
20260504230515 72 198 2.0 13.0 0.00 0.00 0.00 46 1009.1
20260504230115 72 219 2.0 13.0 0.00 0.00 0.00 47 1009.1
20260504225616 73 240 4.0 13.0 0.00 0.00 0.00 45 1009.1
20260504225116 72 211 6.0 13.0 0.00 0.00 0.00 45 1009.1
20260504224617 73 212 6.0 15.0 0.00 0.00 0.00 44 1009.1
20260504224124 73 205 5.0 15.0 0.00 0.00 0.00 47 1009.1
20260504223622 73 226 7.0 14.0 0.00 0.00 0.00 44 1009.1
20260504223004 73 175 5.0 15.0 0.00 0.00 0.00 44 1009.1
20260504222605 73 219 7.0 17.0 0.00 0.00 0.00 44 1009.1
20260504222105 73 268 7.0 17.0 0.00 0.00 0.00 44 1009.1
20260504221610 73 162 5.0 11.0 0.00 0.00 0.00 46 1009.1
20260504221112 74 219 3.0 20.0 0.00 0.00 0.00 45 1008.9
20260504220522 74 151 8.0 20.0 0.00 0.00 0.00 43 1008.9
20260504220011 74 221 7.0 14.0 0.00 0.00 0.00 42 1008.9
20260504215605 74 212 4.0 18.0 0.00 0.00 0.00 44 1009.0
20260504215107 74 207 4.0 18.0 0.00 0.00 0.00 42 1009.0
20260504214609 75 207 6.0 16.0 0.00 0.00 0.00 42 1009.0
20260504214107 75 143 6.0 14.0 0.00 0.00 0.00 43 1009.0
20260504213617 75 241 6.0 14.0 0.00 0.00 0.00 45 1009.0
20260504213115 75 179 3.0 11.0 0.00 0.00 0.00 44 1009.0
20260504212618 75 244 4.0 13.0 0.00 0.00 0.00 40 1009.0
20260504212116 75 197 7.0 13.0 0.00 0.00 0.00 42 1009.0
20260504211619 75 235 6.0 17.0 0.00 0.00 0.00 42 1009.0
20260504211122 75 192 6.0 17.0 0.00 0.00 0.00 41 1009.1
20260504210517 76 266 3.0 16.0 0.00 0.00 0.00 41 1009.1
20260504210117 76 213 5.0 16.0 0.00 0.00 0.00 40 1009.1
20260504205621 76 167 6.0 11.0 0.00 0.00 0.00 39 1009.1
20260504205121 76 297 3.0 9.0 0.00 0.00 0.00 42 1009.1
20260504204502 76 158 4.0 10.0 0.00 0.00 0.00 41 1009.1
20260504204105 76 291 2.0 11.0 0.00 0.00 0.00 41 1009.2
20260504203609 76 240 4.0 14.0 0.00 0.00 0.00 42 1009.2
20260504203110 76 191 6.0 19.0 0.00 0.00 0.00 41 1009.2
20260504202614 77 223 4.0 12.0 0.00 0.00 0.00 43 1009.3
20260504202113 76 154 2.0 12.0 0.00 0.00 0.00 43 1009.3
20260504201619 76 139 5.0 16.0 0.00 0.00 0.00 40 1009.3
20260504201119 77 188 6.0 16.0 0.00 0.00 0.00 38 1009.7
20260504200517 76 199 6.0 12.0 0.00 0.00 0.00 40 1009.7
20260504200116 76 255 3.0 9.0 0.00 0.00 0.00 39 1009.7